Location: LDNL
(36.4545°S, 141.6685°E)
Time: 14:41:10
(UTC+11:00)

Courier 1B Rocket - Pass Details

Date: 03 February 2023
Orbit: 920 x 1202 km, 28.2° (Epoch: 25 March)

Event Time Altitude Azimuth Distance (km) Brightness Sun altitude
Rises 08:06:07 0° 284° (WNW) 4,098 7.6 13.6°
Reaches altitude 10° 08:09:05 10° 290° (WNW) 3,140 7.1 14.2°
Maximum altitude 08:16:31 47° 0° (N) 1,546 6.2 15.6°
Drops below altitude 10° 08:23:46 10° 71° (ENE) 3,063 8.9 17.1°
Sets 08:26:38 0° 76° (ENE) 3,989 9.5 17.6°
